Regional Weather Roundup
Issued by NWS Upton, NY

Current Version | Previous Version | Graphics & Text | Print | Product List | Glossary Off
Versions: 1 2 3 4 5 6 7 8 9 10 11 12 13 14 15 16 17 18 19 20 21 22 23 24 25 26 27 28 29 30 31 32 33 34 35 36 37 38 39 40 41 42 43 44 45 46 47 48 49 50
000 ASUS41 KOKX 031308 RWROKX REGIONAL WEATHER ROUNDUP NATIONAL WEATHER SERVICE NEW YORK NY 900 AM EDT FRI JUL 03 2015 NOTE: "FAIR" INDICATES FEW OR NO CLOUDS BELOW 12,000 FEET WITH NO SIGNIFICANT WEATHER AND/OR OBSTRUCTIONS TO VISIBILITY. NYZ071-072-176-178-NJZ106-104-031400- NEW YORK CITY METRO AREA CITY SKY/WX TMP DP RH WIND PRES REMARKS CENTRAL PARK SUNNY 69 53 56 VRB6 30.01R LAGUARDIA APRT MOSUNNY 70 50 49 N10 29.98R KENNEDY INTL MOSUNNY 72 51 47 N14 29.98R NEWARK/LIBERTY MOSUNNY 72 52 49 N9 29.98R BRNX BOT. GARD N/A 68 50 52 W2 30.01R TETERBORO SUNNY 71 50 47 N9 29.98R $$ NYZ177-179-078>081-031400- LONG ISLAND NEW YORK CITY SKY/WX TMP DP RH WIND PRES REMARKS FARMINGDALE SUNNY 71 52 50 N12 29.97R ISLIP MOSUNNY 70 54 56 N12 29.96R SHIRLEY SUNNY 69 56 62 N10 29.98R WESTHAMPTON SUNNY 69 57 65 N9 29.97S MONTAUK POINT N/A 68 59 73 NW6 29.97R $$ NYZ052-065-067-031400- HUDSON VALLEY CITY SKY/WX TMP DP RH WIND PRES REMARKS WHITE PLAINS SUNNY 68 51 54 N10 29.99R NEWBURGH SUNNY 66 54 63 E7 30.03R MONTGOMERY SUNNY 65 54 67 CALM 30.02R POUGHKEEPSIE SUNNY 65 52 62 N5 30.01R ALBANY MOSUNNY 64 50 60 N5 30.02R $$ NJZ001-105-106-008-010-013-015-019>022-104-031400- NEW JERSEY CITY SKY/WX TMP DP RH WIND PRES REMARKS NEWARK/LIBERTY MOSUNNY 72 52 49 N9 29.98R TETERBORO SUNNY 71 50 47 N9 29.98R CALDWELL SUNNY 69 52 54 CALM 30.00R MORRISTOWN MOSUNNY 72 59 64 N9 30.00R SOMERVILLE PTSUNNY 71 50 47 NE7 29.98R SUSSEX SUNNY 66 54 65 E5 30.02R ANDOVER N/A 65 53 65 VRB6 30.02R TRENTON SUNNY 70 55 59 N7 29.98R MILLVILLE PTSUNNY 70 64 81 E6 29.98R ATLANTIC CITY PTSUNNY 71 66 84 NE6 29.97R WRIGHTSTOWN MOSUNNY 71 61 71 NE6 29.96R TOMS RIVER MOSUNNY 72 59 64 NE7 29.98R BELMAR SUNNY 70 59 68 N7 29.98R $$ PAZ047>061-062-071-031400- EASTERN PENNSYLVANIA CITY SKY/WX TMP DP RH WIND PRES REMARKS PHILADELPHIA PTSUNNY 73 58 59 NE10 29.99R ALLENTOWN SUNNY 69 52 54 NE5 30.01R SCRANTON MOSUNNY 65 50 58 N6 30.04R $$ CTZ002-004>006-009-010-012-RIZ004-006-007-MAZ004-011-015-031400- SOUTHERN NEW ENGLAND IN CT CITY SKY/WX TMP DP RH WIND PRES REMARKS BRADLEY INTL MOSUNNY 68 51 54 N8 29.98R HARTFORD SUNNY 68 51 54 N8 29.98R DANBURY SUNNY 69 51 52 VRB6 30.01R WTRBRY/OXFORD SUNNY 66 50 55 NE6 30.01R BRIDGEPORT SUNNY 70 52 52 N14 29.97R MERIDEN SUNNY 70 51 51 N8 29.98R NEW HAVEN SUNNY 69 53 56 N10 29.97R CHESTER FAIR 66 54 63 N6 29.98R GROTON SUNNY 70 56 61 N8 29.95R WILLIMANTIC SUNNY 69 53 56 CALM 29.97R IN RI CITY SKY/WX TMP DP RH WIND PRES REMARKS PROVIDENCE MOSUNNY 72 50 45 N10 29.96R BLOCK ISLAND SUNNY 68 57 68 NE9 29.95R WESTERLY SUNNY 71 54 54 VRB7 29.95R IN MA CITY SKY/WX TMP DP RH WIND PRES REMARKS BOSTON MOSUNNY 70 49 47 N6 29.96R WORCESTER SUNNY 68 45 43 N9 29.99R WESTFIELD SUNNY 68 52 56 VRB5 29.99R PROVINCETOWN SUNNY 66 10 11 N7 29.95R NANTUCKET SUNNY 71 63 75 N12 29.91R $$ ANZ330-335-338-340-345-350-353-355-031400- COASTAL MARINE OBSERVATIONS STATION/POSITION TIME SKY/WX TEMP WIND PRES VSBY WAVE AIR SEA DIR/SP/G HT/PER (UTC) (F) (DEG/KT/KT) (MB) (MI) (FT/S) NY HARB ENTRANCE 1250 69 68 360/ 12/ 12 1014.3 3/ 8 4S FIRE IS 1203 69 N/A 2/ 8 20S FIRE ISLAND 1250 67 67 360/ 8/ 10 1014.2 2/ 8 GREAT SOUTH BAY 1200 67 74 350/ 12/ 14 N/A 23SW MTP 1250 65 65 350/ 8/ 10 1013.6 2/ 8 HUDSON CANYON NOT AVBL KINGS POINT 1200 68 68 20/ 4/ 8 1014.3 CENTRAL LI SOUND NOT AVBL EASTERN LI SOUND 1200 71 64 360/ 8/ 10 N/A ROBBINS REEF 1200 67 360/ 14/ 15 1013.7 $$ >>>>>>>>>>>>>>>>>>>>>>>>>>>> KEY <<<<<<<<<<<<<<<<<<<<<<<<<<< > < > SKY/WX - SKY CONDITION/PRESENT WEATHER < > TMP - TEMPERATURE IN FAHRENHEIT < > DP - DEWPOINT IN FAHRENHEIT < > RH - RELATIVE HUMIDITY IN PERCENT < > WIND - DIRECTION AND SPEED IN MPH < > PRES - MEAN SEA LEVEL PRESSURE IN INCHES OF HG < > WCI - WIND CHILL INDEX < > VSB - VISIBILITY IN MILES < > HX - HEAT INDEX < > TC - TEMPERATURE IN CELSIUS < > VRB - VARIABLE WIND DIRECTION < > < >>>>>>>>>>>>>>>>>>>>>>>>>>>> KEY <<<<<<<<<<<<<<<<<<<<<<<<<<<

USA.gov is the U.S. government's official web portal to all federal, state and local government web resources and services.